CAPE
178 139 166 40 0 0 0 0 0 0 0 0 0 0 0 0 0 0 0 0 0 0 0 0 0 0 0 0 0 0 0 0 0 0 0 0 0 0 0 0 0 0 0
0 0 0 0 0 0 0 0 0 0 0 0 0 0 0 0 0 0 0 0 0 0 0 0 0 0 0 0 0 0 0 0 0 0 0 0 0 0 0 0 0 0 0
0 0 0 0 0 0 0 0 0 0 0 0 0 0 0 0 0 0 0 0 0 0 0 0 0 0 0 0 0 0 0 0 0 0 0 0 0 0 0 0 0 0 0
0 0 0 0 0 0 0 0 0 0 0 0 0 0 0 0 0 0 0 0 0 0 0 0 0 0 0 0 0 0 0 0 0 0 0 0 0 0 0 0 0 0 0
0 0 0 0 0 0 0 0 0 0 0 0 0 0 0 0 0 0 0 0 0 0 0 0 0 0 0 0 0 0 0 0 0 0 0 0 0 0 0 0 0 0 0
0 0 0 0 0 0 0 0 0 0 0 0 0 0 0 0 0 0 0 0 0 0 0 0 0 0 0 0 0 0 0 0 0 0 0 0 0 0 0 0 0 0 0
0 0 0 0 0 0 0 0 0 0 0 0 0 0 0 0 0 0 0 0 0 0 0 0 0 0 0 0 0 0 0 0 0 0 0 0 0 0 0 0 0 0 0
0 0 0 0 0 0 0 0 0 0 0 0 0 0 0 0 0 0 0 0 0 0 0 0 0 0 0 0 0 0 0 0 0 0 0 0 0 0 0 0 0 0 0
0 0 0 0 0 0 0 0 0 0 0 0 0 0 0 0 0 0 0 0 0 0 0 0 0 0 0 0 0 0 0 0 0 0 0 0 0 0 0 0 0 0 0
0 0 0 0 0 0 0 0 0 0 0 0 0 0 0 0 0 0 0 0 0 0 0 0 0 0 0 0 0 0 0 0 0 0 0 0 0 0 0 0 0 0 0
0 0 0 0 0 0 0 0 0 0 0 0 0 0 0 0 0 0 0 0 0 0 0 0 0 0 0 0 0 0 0 0 0 0 0 0 0 0 0 0 0 0 0
0 0 0 0 0 0 0 0 0 0 0 0 0 0 0 0 0 0 0 0 0 0 0 0 0 0 0 0 0 0 0 0 0 0 0 0 0 0 0 0 0 0 0
0 0 0 0 0 0 0 0 0 0 0 0 0 0 0 0 0 0 0 0 0 0 0 0 0 0 0 0 0 0 0 0 0 0 0 0 0 0 0 0 0 0 0
0 0 0 0 0 0 0 0 0 0 0 0 0 0 0 0 0 0 0 0 0 0 0 0 0 0 0 0 0 0 0 0 0 0 0 0 0 0 0 0 0 0 0
0 0 0 0 0 0 0 0 0 0 0 0 0 0 0 0 0 0 0 0 0 0 0 0 0 0 0 0 0 0 0 0 0 0 0 0 0 0 0 0 0 0 0
0 0 0 0 0 0 0 0 0 0 0 0 0 0 0 0 0 0 0 0 0 0 0 0 0 0 0 0 0 0 0 0 0 0 0 0 0 0 0 0 0 0 0
0 0 0 0 0 0 0 0 0 0 0 0 0 0 0 0 0 0 0 0 0 0 0 0 0 0 0 0 0 0 0 0 0 0 0 0 0 0 0 0 0 0 0
0 0 0 0 0 0 0 0 0 0 0 0 0 0 0 0 0 0 0 0 0 0 0 0 0 0 0 0 0 0 0 0 0 0 0 0 0 0 0 0 0 0 0
0 0 0 0 0 0 0 0 0 0 0 0 0 0 0 0 0 0 0 0 0 0 0 0 0 0 0 0 0 0 0 0 0 0 0 0 0 0 0 0 0 0 0
0 0 0 0 0 0 0 0 0 0 0 0 0 0 0 0 0 0 0 0 0 0 0 0 0 0 0 0 0 0 0 0 0 0 0 0 0 5 8 0 0 0 0
0 0 0 0 0 0 0 0 0 0 0 0 0 0 0 0 0 0 0 0 0 0 0 0 0 0 0 0 0 0 0 0 0 0 0 0 0 3 14 26 0 0 4
0 0 0 0 0 0 0 0 0 0 0 0 0 0 0 0 0 0 0 0 0 0 0 0 0 0 0 0 0 0 2 3 0 0 0 0 0 20 23 16 29 30 20
0 0 0 0 0 0 0 0 0 0 0 0 0 0 0 0 0 0 0 0 0 0 0 0 0 0 0 0 0 0 0 1 0 0 0 16 19 21 2 1 1 0 0
0 0 0 0 0 0 0 0 0 0 0 0 0 0 0 0 0 0 0 0 0 0 0 0 0 0 0 0 0 0 0 0 0 0 0 0 9 2 0 0 0 0 0
0 0 0 0 0 0 0 0 0 0 0 0 0 0 0 0 0 0 0 0 0 0 0 0 0 0 0 0 6 8 2 0 2 8 0 0 0 0 0 0 0 0 0
0 0 0 0 0 0 0 0 0 0 0 0 0 0 0 0 0 0 0 0 0 0 0 1 2 0 7 10 10 13 14 19 24 3 0 0 0 0 0 0 0 0 0
CIN
-368 -411 -405 -515 -0 -0 -0 -0 -0 -0 -0 -0 -0 -0 -0 -0 -0 -0 -0 -0 -0 -0 -0 -0 -0 -0 -0 -0 -0 -0 -0 -0 -0 -0 -0 -0 -0 -0 -0 -0 -0 -0 -0
-0 -0 -0 -0 -0 -0 -0 -0 -0 -0 -0 -0 -0 -0 -0 -0 -0 -0 -0 -0 -0 -0 -0 -0 -0 -0 -0 -0 -0 -0 -0 -0 -0 -0 -0 -0 -0 -0 -0 -0 -0 -0 -0
-0 -0 -0 -0 -0 -0 -0 -0 -0 -0 -0 -0 -0 -0 -0 -0 -0 -0 -0 -0 -0 -0 -0 -0 -0 -0 -0 -0 -0 -0 -0 -0 -0 -0 -0 -0 -0 -0 -0 -0 -0 -0 -0
-0 -0 -0 -0 -0 -0 -0 -0 -0 -0 -0 -0 -0 -0 -0 -0 -0 -0 -0 -0 -0 -0 -0 -0 -0 -0 -0 -0 -0 -0 -0 -0 -0 -0 -0 -0 -0 -0 -0 -0 -0 -0 -0
-0 -0 -0 -0 -0 -0 -0 -0 -0 -0 -0 -0 -0 -0 -0 -0 -0 -0 -0 -0 -0 -0 -0 -0 -0 -0 -0 -0 -0 -0 -0 -0 -0 -0 -0 -0 -0 -0 -0 -0 -0 -0 -0
-0 -0 -0 -0 -0 -0 -0 -0 -0 -0 -0 -0 -0 -0 -0 -0 -0 -0 -0 -0 -0 -0 -0 -0 -0 -0 -0 -0 -0 -0 -0 -0 -0 -0 -0 -0 -0 -0 -0 -0 -0 -0 -0
-0 -0 -0 -0 -0 -0 -0 -0 -0 -0 -0 -0 -0 -0 -0 -0 -0 -0 -0 -0 -0 -0 -0 -0 -0 -0 -0 -0 -0 -0 -0 -0 -0 -0 -0 -0 -0 -0 -0 -0 -0 -0 -0
-0 -0 -0 -0 -0 -0 -0 -0 -0 -0 -0 -0 -0 -0 -0 -0 -0 -0 -0 -0 -0 -0 -0 -0 -0 -0 -0 -0 -0 -0 -0 -0 -0 -0 -0 -0 -0 -0 -0 -0 -0 -0 -0
-0 -0 -0 -0 -0 -0 -0 -0 -0 -0 -0 -0 -0 -0 -0 -0 -0 -0 -0 -0 -0 -0 -0 -0 -0 -0 -0 -0 -0 -0 -0 -0 -0 -0 -0 -0 -0 -0 -0 -0 -0 -0 -0
-0 -0 -0 -0 -0 -0 -0 -0 -0 -0 -0 -0 -0 -0 -0 -0 -0 -0 -0 -0 -0 -0 -0 -0 -0 -0 -0 -0 -0 -0 -0 -0 -0 -0 -0 -0 -0 -0 -0 -0 -0 -0 -0
-0 -0 -0 -0 -0 -0 -0 -0 -0 -0 -0 -0 -0 -0 -0 -0 -0 -0 -0 -0 -0 -0 -0 -0 -0 -0 -0 -0 -0 -0 -0 -0 -0 -0 -0 -0 -0 -0 -0 -0 -0 -0 -0
-0 -0 -0 -0 -0 -0 -0 -0 -0 -0 -0 -0 -0 -0 -0 -0 -0 -0 -0 -0 -0 -0 -0 -0 -0 -0 -0 -0 -0 -0 -0 -0 -0 -0 -0 -0 -0 -0 -0 -0 -0 -0 -0
-0 -0 -0 -0 -0 -0 -0 -0 -0 -0 -0 -0 -0 -0 -0 -0 -0 -0 -0 -0 -0 -0 -0 -0 -0 -0 -0 -0 -0 -0 -0 -0 -0 -0 -0 -0 -0 -0 -0 -0 -0 -0 -0
-0 -0 -0 -0 -0 -0 -0 -0 -0 -0 -0 -0 -0 -0 -0 -0 -0 -0 -0 -0 -0 -0 -0 -0 -0 -0 -0 -0 -0 -0 -0 -0 -0 -0 -0 -0 -0 -0 -0 -0 -0 -0 -0
-0 -0 -0 -0 -0 -0 -0 -0 -0 -0 -0 -0 -0 -0 -0 -0 -0 -0 -0 -0 -0 -0 -0 -0 -0 -0 -0 -0 -0 -0 -0 -0 -0 -0 -0 -0 -0 -0 -0 -0 -0 -0 -0
-0 -0 -0 -0 -0 -0 -0 -0 -0 -0 -0 -0 -0 -0 -0 -0 -0 -0 -0 -0 -0 -0 -0 -0 -0 -0 -0 -0 -0 -0 -0 -0 -0 -0 -0 -0 -0 -0 -0 -0 -0 -0 -0
-0 -0 -0 -0 -0 -0 -0 -0 -0 -0 -0 -0 -0 -0 -0 -0 -0 -0 -0 -0 -0 -0 -0 -0 -0 -0 -0 -0 -0 -0 -0 -0 -0 -0 -0 -0 -0 -0 -0 -0 -0 -0 -0
-0 -0 -0 -0 -0 -0 -0 -0 -0 -0 -0 -0 -0 -0 -0 -0 -0 -0 -0 -0 -0 -0 -0 -0 -0 -0 -0 -0 -0 -0 -0 -0 -0 -0 -0 -0 -0 -0 -0 -0 -0 -0 -0
-0 -0 -0 -0 -0 -0 -0 -0 -0 -0 -0 -0 -0 -0 -0 -0 -0 -0 -0 -0 -0 -0 -0 -0 -0 -0 -0 -0 -0 -0 -0 -0 -0 -0 -0 -0 -0 -0 -0 -0 -0 -0 -0
-0 -0 -0 -0 -0 -0 -0 -0 -0 -0 -0 -0 -0 -0 -0 -0 -0 -0 -0 -0 -0 -0 -0 -0 -0 -0 -0 -0 -0 -0 -0 -0 -0 -0 -0 -0 -0 -0 -0 -2 -0 -0 -0
-0 -0 -0 -0 -0 -0 -0 -0 -0 -0 -0 -0 -0 -0 -0 -0 -0 -0 -0 -0 -0 -0 -0 -0 -0 -0 -0 -0 -0 -0 -0 -0 -0 -0 -0 -0 -0 -0 -0 -0 -2 -0 -1
-0 -0 -0 -0 -0 -0 -0 -0 -0 -0 -0 -0 -0 -0 -0 -0 -0 -0 -0 -0 -0 -0 -0 -0 -0 -0 -0 -0 -0 -0 -0 -1 -0 -0 -0 -0 -5 -0 -0 -1 -0 -0 -0
-0 -0 -0 -0 -0 -0 -0 -0 -0 -0 -0 -0 -0 -0 -0 -0 -0 -0 -0 -0 -0 -0 -0 -0 -0 -0 -0 -0 -0 -0 -0 -0 -0 -0 -1 -0 -0 -0 -0 -0 -0 -0 -0
-0 -0 -0 -0 -0 -0 -0 -0 -0 -0 -0 -0 -0 -0 -0 -0 -0 -0 -0 -0 -0 -0 -0 -0 -0 -0 -0 -0 -0 -0 -0 -0 -0 -0 -0 -0 -2 -3 -0 -0 -0 -0 -0
-0 -0 -0 -0 -0 -0 -0 -0 -0 -0 -0 -0 -0 -0 -0 -0 -0 -0 -0 -0 -0 -0 -0 -0 -0 -0 -0 -0 -0 -2 -1 -0 -1 -5 -0 -0 -0 -0 -0 -0 -0 -0 -0
-0 -0 -0 -0 -0 -0 -0 -0 -0 -0 -0 -0 -0 -0 -0 -0 -0 -0 -0 -0 -0 -0 -0 -0 -0 -0 -1 -0 -0 -0 -0 -0 -0 -9 -0 -0 -0 -0 -0 -0 -0 -0 -0
Wind_Speed
8 8 9 9 9 7 10 12 12 9 9 5 4 3 4 2 2 2 5 5 5 4 4 3 3 3 4 3 3 2 4 5 4 2 3 2 3 3 3 3 3 4 5
6 6 9 10 12 12 12 11 12 13 9 7 4 4 4 2 2 2 3 4 5 4 4 4 3 4 3 4 4 4 2 2 5 3 2 3 4 3 3 2 3 4 4
11 8 8 12 11 12 13 14 13 13 8 8 6 4 5 4 2 1 2 2 4 4 4 4 4 4 3 3 2 3 4 2 3 5 3 2 1 2 3 3 3 4 4
6 6 9 8 12 12 11 12 13 12 9 9 6 7 5 4 4 4 3 4 4 4 4 4 4 4 3 4 2 2 2 2 3 2 3 3 2 2 4 3 3 5 3
9 9 10 10 6 8 12 11 11 10 9 8 7 6 5 3 3 3 6 4 3 3 3 4 5 4 3 3 3 3 3 2 2 2 2 3 3 3 2 3 5 4 3
7 6 5 9 7 7 8 10 12 8 9 8 7 8 8 7 5 4 4 3 2 2 2 4 4 4 4 3 2 2 3 3 3 1 1 1 1 0 2 1 3 3 4
7 8 10 11 11 13 11 9 11 8 7 8 7 8 8 7 7 6 5 5 3 2 3 3 3 2 3 3 3 3 2 2 2 1 0 0 1 1 2 2 2 2 3
6 7 10 11 12 13 12 12 11 9 8 8 7 6 7 5 4 5 4 4 3 3 3 4 4 4 4 3 3 2 2 2 1 1 1 1 2 2 2 2 2 3 2
7 7 6 8 10 11 10 12 11 9 8 8 7 6 6 6 6 6 4 4 3 3 4 5 5 4 4 3 3 2 2 2 1 1 1 1 1 1 1 2 2 3 3
5 6 6 8 6 8 8 8 8 10 7 8 6 6 6 6 6 6 6 6 4 4 6 6 6 6 6 5 5 3 4 4 3 3 4 3 2 3 2 1 2 2 3
3 3 6 7 8 8 8 8 8 9 8 7 6 7 6 7 7 7 6 6 6 6 7 6 7 7 6 6 6 6 6 6 5 5 5 5 4 3 3 2 1 1 3
5 5 6 7 8 8 8 8 8 9 7 8 9 9 9 9 9 8 7 6 8 7 7 7 8 7 7 6 7 6 5 6 6 5 5 5 4 4 4 3 4 3 2
7 6 6 7 8 8 8 9 9 10 9 10 11 10 9 10 9 9 8 8 8 7 7 8 7 6 6 6 6 6 5 5 4 4 4 4 4 4 3 3 4 3 3
9 7 6 7 7 7 9 9 9 9 10 11 11 11 9 9 9 8 8 8 6 7 7 6 6 6 6 6 5 5 4 4 3 3 3 4 3 4 5 4 4 3 4
10 10 10 8 8 8 8 9 8 9 10 12 12 10 9 9 8 8 7 7 7 7 6 6 6 6 5 3 4 4 3 3 4 4 4 4 6 10 8 4 4 4 3
11 8 8 9 10 11 10 9 9 9 11 11 11 9 9 8 7 7 7 7 7 7 6 6 6 6 3 8 9 6 3 4 4 5 6 5 9 7 11 13 14 10 4
19 16 14 12 10 11 12 12 10 10 11 11 9 9 8 8 7 7 7 7 6 5 6 6 6 5 5 9 10 10 3 4 4 4 5 5 4 8 5 11 13 11 12
20 17 16 12 11 9 10 11 10 10 11 10 9 7 8 8 7 7 7 6 4 5 4 4 4 4 3 9 10 10 4 3 4 4 5 5 6 7 9 6 6 6 6
16 15 13 13 12 12 10 12 10 10 10 9 8 7 7 7 7 7 6 4 4 3 3 2 4 5 5 10 10 8 4 4 5 5 6 6 6 13 17 8 6 6 7
17 16 14 14 13 10 11 12 9 9 9 7 7 7 7 7 7 6 5 3 3 3 3 4 3 5 4 8 9 8 2 4 4 5 5 11 10 15 16 8 5 5 6
18 16 15 14 13 11 12 11 9 9 7 7 7 7 6 7 6 5 3 3 3 3 3 3 4 4 3 5 11 12 4 4 4 3 4 4 15 17 17 17 5 6 9
19 17 15 13 10 10 12 10 10 7 7 7 7 6 6 5 5 5 3 3 3 2 3 3 4 3 4 8 9 13 13 11 3 4 4 6 15 17 18 13 16 18 15
16 15 16 14 10 9 11 11 6 8 7 7 6 6 5 5 4 4 3 2 1 1 3 2 2 4 3 4 12 13 14 13 7 3 9 18 17 16 10 13 16 15 4
16 16 16 14 12 10 10 10 8 7 7 7 6 4 5 5 3 2 1 0 1 2 2 2 3 4 3 4 4 5 6 11 8 10 8 10 11 12 11 8 6 4 4
15 15 15 13 12 11 10 8 7 7 6 6 5 4 3 3 2 1 2 2 3 4 3 3 3 3 4 5 11 11 5 5 7 13 2 3 3 4 4 4 4 4 4
15 14 14 14 11 10 8 6 5 6 6 5 3 2 2 1 0 1 3 6 6 8 10 11 7 4 10 14 16 17 18 18 19 5 3 4 5 5 5 5 6 5 8
Wind_Direction
229 180 176 170 153 156 156 158 149 148 141 141 133 121 145 140 112 150 147 134 127 127 130 126 120 97 88 81 50 78 43 16 1 60 12 359 11 23 17 18 27 19 358
200 219 174 165 175 170 169 161 164 161 165 154 132 132 143 143 127 146 132 132 132 136 141 135 131 111 103 71 53 49 57 30 13 92 82 18 337 357 9 15 12 12 353
219 201 192 182 170 168 169 171 166 165 155 128 112 82 80 65 87 139 125 145 141 138 132 131 121 107 103 96 86 68 64 60 16 47 130 76 253 326 325 348 357 345 345
227 189 182 189 185 178 168 166 159 155 148 146 135 147 145 151 190 162 145 136 141 135 133 129 119 115 108 100 104 98 87 88 35 5 36 59 125 118 339 335 326 330 349
201 202 193 182 180 158 161 157 145 143 144 150 145 140 136 130 128 111 125 129 121 130 136 129 118 114 110 112 109 91 86 75 94 51 23 44 45 69 114 295 319 335 316
228 215 155 140 143 135 140 143 143 143 142 146 154 155 154 149 133 128 137 140 127 136 137 125 121 125 121 124 111 101 92 95 91 83 52 94 103 10 84 343 298 275 297
189 180 169 163 157 155 148 139 142 141 142 144 150 157 156 154 151 151 150 151 149 170 185 145 136 121 125 127 122 113 99 106 99 117 126 178 221 162 162 155 269 300 307
187 189 172 165 158 154 149 143 143 134 145 148 153 151 144 139 140 146 144 154 155 152 151 144 129 121 118 120 118 94 95 109 91 58 246 267 251 196 189 194 160 317 296
167 147 137 142 141 142 145 144 140 139 147 144 135 139 136 138 141 129 118 119 113 135 123 123 113 97 93 99 106 87 63 60 45 10 358 296 317 288 251 225 184 176 297
145 127 122 118 107 115 116 116 130 143 138 131 131 132 133 124 118 110 108 108 104 89 98 91 84 75 68 64 70 58 45 55 31 43 29 8 347 350 343 303 248 205 209
76 97 104 96 106 106 120 120 119 123 121 119 118 116 110 103 97 94 93 92 88 85 82 84 81 74 66 55 66 65 51 60 49 38 39 24 8 359 354 349 314 261 188
103 91 85 99 99 102 101 107 107 108 109 111 108 104 102 96 94 93 91 88 87 74 81 78 77 73 68 61 64 64 54 54 42 24 31 19 0 2 353 350 331 290 240
123 106 97 97 103 104 103 103 104 107 108 110 108 99 96 98 97 94 88 83 87 79 73 76 75 74 70 67 63 68 60 54 49 33 25 356 357 342 332 324 316 303 309
150 131 118 109 105 104 109 105 98 106 108 104 103 102 99 100 97 93 87 88 87 88 79 73 75 69 70 66 60 57 45 26 10 352 337 317 314 303 303 294 291 291 300
156 159 146 132 119 112 107 103 99 104 111 103 102 102 99 95 94 91 89 86 79 78 77 74 61 51 54 36 46 43 26 360 338 331 319 299 298 303 302 301 298 296 277
155 147 133 130 134 130 120 119 117 103 106 106 107 105 101 98 96 93 89 82 76 71 69 60 59 47 23 15 10 12 9 351 345 327 322 319 313 314 317 312 306 296 304
156 159 157 151 145 141 136 127 120 114 109 110 110 107 104 97 92 92 86 80 75 73 64 56 46 29 2 6 1 352 17 344 335 327 323 324 317 319 293 305 309 301 294
167 163 150 141 134 127 121 114 115 113 113 109 105 104 103 100 95 88 84 79 69 64 58 43 28 17 345 353 351 348 18 4 338 323 313 308 309 310 314 288 286 277 273
149 151 143 138 128 133 126 118 112 114 111 111 109 108 105 100 95 86 85 77 68 58 45 26 14 2 334 344 343 346 354 334 318 305 308 297 299 308 313 305 291 285 286
142 139 129 124 126 130 123 118 124 118 117 119 117 112 108 106 100 99 88 69 65 54 27 353 357 332 331 330 338 337 329 310 294 295 296 305 310 313 314 307 296 290 272
132 126 128 134 134 129 124 121 121 120 126 117 111 103 102 102 103 98 86 83 71 37 12 346 328 322 314 314 326 325 309 277 280 278 282 276 308 313 311 311 294 269 289
129 123 121 121 124 124 121 119 115 126 116 110 105 103 100 95 105 103 92 78 74 31 347 330 317 314 310 319 321 317 315 312 302 293 283 282 298 309 315 316 310 312 323
123 122 121 120 117 117 123 116 122 117 111 103 103 102 107 103 91 93 82 63 32 5 309 291 299 300 296 299 311 315 315 314 310 273 284 305 310 306 310 310 310 321 317
119 119 118 116 109 104 101 108 112 110 108 109 113 115 96 98 84 84 103 46 304 295 281 292 283 285 298 296 292 288 290 294 295 289 285 291 308 313 304 309 298 286 273
112 112 112 109 104 103 99 101 104 112 120 113 98 89 95 89 86 29 245 230 253 229 248 248 256 281 278 272 289 304 292 285 289 307 334 316 301 292 290 285 271 270 272
106 102 103 104 104 102 104 107 107 99 96 98 111 133 128 108 78 323 319 312 300 309 312 309 302 282 302 311 308 313 310 305 304 323 295 299 292 287 289 290 297 300 305